When you browse on this site, cookies collect data to enhance your experience and personalize the content and advertising you see.
Visit our Privacy Policy to learn more. By continuing to use the site, you agree to this use of cookies and data.
  • In Romania
  • List of Countries
  • For 7 days
  • Water Temperature
  • Satellite Maps
  • Weather Map
  • Weather Widgets
  • user-avatar
    Login

    Hourly Weather Saint-Priest

    Today, 17 June, Monday

    Time Temperature Precipitation Wind Pressure Humidity
    00:00 +15°C° 0 mm 2 mps 746 mmHg 84%
    01:00 +15°C° 0 mm 1 mps 746 mmHg 86%
    02:00 +14°C° 0 mm 1 mps 745 mmHg 88%
    03:00 +13°C° 0 mm 1 mps 745 mmHg 90%
    04:00 +14°C° 0 mm 1 mps 745 mmHg 88%
    05:00 +15°C° 0 mm 1 mps 745 mmHg 86%
    06:00 +16°C° 0 mm 1 mps 745 mmHg 85%
    07:00 +18°C° 0 mm 1 mps 745 mmHg 79%
    08:00 +20°C° 0 mm 1 mps 745 mmHg 74%
    09:00 +22°C° 0 mm 1 mps 745 mmHg 69%
    10:00 +23°C° 0 mm 1 mps 744 mmHg 63%
    11:00 +25°C° 0 mm 1 mps 744 mmHg 58%
    12:00 +27°C° 0 mm 2 mps 744 mmHg 53%
    13:00 +27°C° 0 mm 2 mps 744 mmHg 51%
    14:00 +28°C° 0 mm 2 mps 743 mmHg 49%
    15:00 +28°C° 0 mm 2 mps 743 mmHg 47%
    16:00 +27°C° 0 mm 1 mps 743 mmHg 52%
    17:00 +27°C° 0 mm 1 mps 743 mmHg 58%
    18:00 +26°C° 0 mm 1 mps 743 mmHg 63%
    19:00 +24°C° 0 mm 1 mps 744 mmHg 69%
    20:00 +22°C° 0 mm 1 mps 744 mmHg 74%
    21:00 +20°C° 0 mm 1 mps 744 mmHg 79%
    22:00 +18°C° 0 mm 0 mps 744 mmHg 81%
    23:00 +17°C° 0 mm 0 mps 744 mmHg 83%

    Tomorrow, 18 June, Tuesday

    Time Temperature Precipitation Wind Pressure Humidity
    00:00 +17°C° 0 mm 0 mps 744 mmHg 85%
    01:00 +16°C° 0 mm 0 mps 744 mmHg 86%
    02:00 +16°C° 0 mm 0 mps 744 mmHg 87%
    03:00 +16°C° 0 mm 0 mps 743 mmHg 88%
    04:00 +16°C° 0 mm 0 mps 743 mmHg 86%
    05:00 +17°C° 0 mm 0 mps 743 mmHg 84%
    06:00 +18°C° 0 mm 0 mps 743 mmHg 82%
    07:00 +22°C° 0 mm 1 mps 743 mmHg 75%
    08:00 +24°C° 0 mm 1 mps 743 mmHg 69%
    09:00 +25°C° 0 mm 2 mps 743 mmHg 63%
    10:00 +27°C° 0 mm 2 mps 743 mmHg 58%
    11:00 +28°C° 0 mm 3 mps 742 mmHg 53%
    12:00 +30°C° 0 mm 3 mps 742 mmHg 47%
    13:00 +30°C° 0 mm 3 mps 742 mmHg 46%
    14:00 +32°C° 0 mm 4 mps 741 mmHg 44%
    15:00 +32°C° 0 mm 4 mps 741 mmHg 42%
    16:00 +30°C° 0 mm 4 mps 741 mmHg 46%
    17:00 +28°C° 0 mm 4 mps 741 mmHg 50%
    18:00 +27°C° 0 mm 4 mps 741 mmHg 54%
    19:00 +25°C° 0.5 mm 3 mps 741 mmHg 59%
    20:00 +24°C° 0.5 mm 3 mps 742 mmHg 63%
    21:00 +21°C° 0.5 mm 2 mps 742 mmHg 67%
    22:00 +20°C° 0.1 mm 2 mps 742 mmHg 68%
    23:00 +19°C° 0.1 mm 2 mps 742 mmHg 69%

    Day after tomorrow, 19 June, Wednesday

    Time Temperature Precipitation Wind Pressure Humidity
    00:00 +18°C° 0.1 mm 3 mps 741 mmHg 70%
    01:00 +18°C° 0 mm 3 mps 741 mmHg 70%
    02:00 +17°C° 0 mm 3 mps 741 mmHg 69%
    03:00 +17°C° 0 mm 3 mps 741 mmHg 69%
    04:00 +17°C° 0.1 mm 3 mps 741 mmHg 69%
    05:00 +18°C° 0.1 mm 2 mps 741 mmHg 70%
    06:00 +19°C° 0.1 mm 2 mps 741 mmHg 70%
    07:00 +21°C° 0.1 mm 2 mps 741 mmHg 64%
    08:00 +24°C° 0.1 mm 3 mps 741 mmHg 58%
    09:00 +26°C° 0.1 mm 3 mps 741 mmHg 52%
    10:00 +27°C° 0 mm 3 mps 741 mmHg 49%
    11:00 +28°C° 0 mm 3 mps 741 mmHg 46%
    12:00 +30°C° 0 mm 3 mps 741 mmHg 43%
    13:00 +29°C° 0.2 mm 4 mps 741 mmHg 46%
    14:00 +29°C° 0.2 mm 4 mps 740 mmHg 50%
    15:00 +28°C° 0.2 mm 4 mps 740 mmHg 53%
    16:00 +27°C° 0.1 mm 3 mps 740 mmHg 59%
    17:00 +26°C° 0.1 mm 2 mps 740 mmHg 64%
    18:00 +25°C° 0.1 mm 1 mps 741 mmHg 69%
    19:00 +24°C° 0.1 mm 1 mps 741 mmHg 72%
    20:00 +23°C° 0.1 mm 1 mps 742 mmHg 76%
    21:00 +22°C° 0.1 mm 1 mps 742 mmHg 79%
    22:00 +21°C° 0.2 mm 1 mps 742 mmHg 82%
    23:00 +20°C° 0.2 mm 1 mps 742 mmHg 84%

    20 June, Thursday

    Time Temperature Precipitation Wind Pressure Humidity
    00:00 +20°C° 0.2 mm 1 mps 742 mmHg 87%
    01:00 +19°C° 0.8 mm 1 mps 742 mmHg 89%
    02:00 +17°C° 0.8 mm 0 mps 742 mmHg 90%
    03:00 +17°C° 0.8 mm 0 mps 742 mmHg 91%
    04:00 +17°C° 0.7 mm 0 mps 742 mmHg 91%
    05:00 +18°C° 0.7 mm 0 mps 742 mmHg 90%
    06:00 +18°C° 0.7 mm 0 mps 742 mmHg 90%
    07:00 +21°C° 0.2 mm 1 mps 742 mmHg 88%
    08:00 +21°C° 0.2 mm 1 mps 742 mmHg 87%
    09:00 +21°C° 0.2 mm 2 mps 742 mmHg 85%
    10:00 +23°C° 0 mm 2 mps 742 mmHg 78%
    11:00 +24°C° 0 mm 1 mps 742 mmHg 72%
    12:00 +26°C° 0 mm 1 mps 742 mmHg 65%
    13:00 +26°C° 0.1 mm 1 mps 742 mmHg 64%
    14:00 +26°C° 0.1 mm 1 mps 741 mmHg 63%
    15:00 +27°C° 0.1 mm 1 mps 741 mmHg 62%
    16:00 +26°C° 0.9 mm 1 mps 741 mmHg 68%
    17:00 +25°C° 0.9 mm 1 mps 742 mmHg 73%
    18:00 +24°C° 0.9 mm 2 mps 742 mmHg 78%
    19:00 +23°C° 0.3 mm 2 mps 742 mmHg 80%
    20:00 +21°C° 0.3 mm 2 mps 743 mmHg 82%
    21:00 +19°C° 0.3 mm 2 mps 743 mmHg 84%
    22:00 +19°C° 0.1 mm 2 mps 743 mmHg 86%
    23:00 +18°C° 0.1 mm 2 mps 743 mmHg 87%

    21 June, Friday

    Time Temperature Precipitation Wind Pressure Humidity
    00:00 +18°C° 0.1 mm 2 mps 743 mmHg 88%
    01:00 +19°C° 0.1 mm 1 mps 743 mmHg 89%
    02:00 +19°C° 0.1 mm 1 mps 743 mmHg 90%
    03:00 +18°C° 0.1 mm 1 mps 743 mmHg 90%
    04:00 +18°C° 1.3 mm 1 mps 743 mmHg 92%
    05:00 +18°C° 1.3 mm 1 mps 743 mmHg 93%
    06:00 +17°C° 1.3 mm 2 mps 743 mmHg 94%
    07:00 +18°C° 0.9 mm 1 mps 743 mmHg 92%
    08:00 +19°C° 0.9 mm 1 mps 743 mmHg 91%
    09:00 +19°C° 0.9 mm 1 mps 743 mmHg 89%
    10:00 +19°C° 0.5 mm 2 mps 743 mmHg 87%
    11:00 +19°C° 0.5 mm 2 mps 743 mmHg 84%
    12:00 +20°C° 0.5 mm 2 mps 743 mmHg 82%
    13:00 +21°C° 0.1 mm 2 mps 743 mmHg 76%
    14:00 +23°C° 0.1 mm 1 mps 742 mmHg 70%
    15:00 +25°C° 0.1 mm 1 mps 742 mmHg 63%
    16:00 +24°C° 0.2 mm 1 mps 742 mmHg 67%
    17:00 +24°C° 0.2 mm 1 mps 742 mmHg 71%
    18:00 +23°C° 0.2 mm 1 mps 742 mmHg 75%
    19:00 +22°C° 0.1 mm 1 mps 743 mmHg 79%
    20:00 +20°C° 0.1 mm 1 mps 743 mmHg 83%
    21:00 +18°C° 0.1 mm 2 mps 744 mmHg 87%
    22:00 +18°C° 0 mm 1 mps 743 mmHg 88%
    23:00 +18°C° 0 mm 1 mps 743 mmHg 90%

    22 June, Saturday

    Time Temperature Precipitation Wind Pressure Humidity
    00:00 +16°C° 0 mm 1 mps 743 mmHg 91%
    01:00 +16°C° 0 mm 1 mps 743 mmHg 91%
    02:00 +16°C° 0 mm 1 mps 742 mmHg 92%
    03:00 +16°C° 0 mm 1 mps 742 mmHg 92%
    04:00 +16°C° 0 mm 1 mps 742 mmHg 91%
    05:00 +18°C° 0 mm 1 mps 742 mmHg 90%
    06:00 +18°C° 0 mm 1 mps 742 mmHg 88%
    07:00 +19°C° 0 mm 1 mps 742 mmHg 83%
    08:00 +21°C° 0 mm 1 mps 742 mmHg 78%
    09:00 +22°C° 0 mm 1 mps 742 mmHg 72%
    10:00 +24°C° 0 mm 1 mps 741 mmHg 67%
    11:00 +25°C° 0 mm 1 mps 741 mmHg 62%
    12:00 +27°C° 0 mm 1 mps 741 mmHg 57%
    13:00 +27°C° 0.3 mm 1 mps 741 mmHg 56%
    14:00 +27°C° 0.3 mm 1 mps 741 mmHg 55%
    15:00 +27°C° 0.3 mm 1 mps 741 mmHg 54%
    16:00 +25°C° 0.8 mm 1 mps 741 mmHg 62%
    17:00 +23°C° 0.8 mm 1 mps 741 mmHg 70%
    18:00 +21°C° 0.8 mm 1 mps 741 mmHg 78%
    19:00 +20°C° 0.5 mm 1 mps 741 mmHg 80%
    20:00 +19°C° 0.5 mm 1 mps 742 mmHg 82%
    21:00 +16°C° 0.5 mm 0 mps 742 mmHg 83%
    22:00 +16°C° 0.2 mm 0 mps 742 mmHg 84%
    23:00 +18°C° 0.2 mm 1 mps 742 mmHg 84%
    Show more